Volver al catálogo

SCOUT B DEB

LostUNKNOWN
NORAD 28796·DEBRIS·🇺🇸 United States

Lanzado Aug 10, 1965 desde Wallops Flight Facility

Loading…

Próximos Pases (próximas 24 horas)

TLE

ObsoletoSource: Space-Track

Época: Jun 28, 2026, 04:36 UTC

1 28796U 65063F   26179.19232992  .00000179  00000-0  12757-2 0  9995
2 28796  69.2142 140.6183 0749172 301.9410  70.0783 11.94772119186742

Sigue SCOUT B DEB en tiempo real con AllMySat

Download on the App Store